Location: Brno
(49.2000°N, 16.6330°E)
Time: 18:51:45
(UTC+02:00)

Cosmos 1603 - Visible Passes

Search period start: 24 October 2014 00:00
Search period end: 02 November 2014 23:00
Orbit: 830 x 861 km, 71.0° (Epoch: 23 October)

Date Brightness Start Highest point End Pass type
(mag) Time Alt. Az. Time Alt. Az. Time Alt. Az.
24 Oct 6.6 03:12:38 10° NNE 03:13:33 10° NNE 03:14:27 10° NNE visible
24 Oct 5.5 04:54:45 10° NNW 04:59:46 30° NE 05:04:43 10° ESE visible
24 Oct 3.8 06:38:40 10° NW 06:44:18 61° WSW 06:49:52 10° S visible
25 Oct 6.6 02:59:00 10° NNE 02:59:41 10° NNE 03:00:23 10° NNE visible
25 Oct 5.5 04:40:56 10° NNW 04:45:55 29° NE 04:50:51 10° ESE visible
25 Oct 3.8 06:24:50 10° NNW 06:30:30 62° WSW 06:36:04 10° SSE visible
26 Oct 6.6 02:45:27 10° NNE 02:45:50 10° NNE 02:46:12 10° NNE visible
26 Oct 5.5 03:27:08 10° NNW 03:32:05 29° NE 03:36:59 10° ESE visible
26 Oct 3.7 05:11:01 10° NNW 05:16:41 64° WSW 05:22:16 10° SSE visible
26 Oct 5.2 18:24:34 10° SSE 18:26:30 18° SE 18:26:30 18° SE visible
26 Oct 5.6 20:06:50 10° SW 20:08:31 20° SW 20:08:31 20° SW visible
27 Oct 5.5 03:13:48 12° N 03:18:15 28° NE 03:23:06 10° ESE visible
27 Oct 3.7 04:57:11 10° NNW 05:02:52 66° WSW 05:08:27 10° SSE visible
27 Oct 4.8 18:10:50 10° SSE 18:14:37 22° ESE 18:14:37 22° ESE visible
27 Oct 4.7 19:53:00 10° SW 19:56:37 40° SW 19:56:37 40° SW visible
28 Oct 5.5 03:01:15 18° N 03:04:24 28° NE 03:09:14 10° ESE visible
28 Oct 3.6 04:43:22 10° NNW 04:49:03 67° WSW 04:54:39 10° SSE visible
28 Oct 4.8 17:57:05 10° SSE 18:01:20 22° E 18:02:34 20° E visible
28 Oct 3.9 19:39:10 10° SW 19:44:33 69° W 19:44:33 69° W visible
28 Oct 6.5 21:26:08 10° W 21:26:33 11° WNW 21:26:33 11° WNW visible
29 Oct 5.5 02:48:56 24° NNE 02:50:34 27° NE 02:55:21 10° ESE visible
29 Oct 3.6 04:30:55 18° NW 04:35:14 69° WSW 04:40:50 10° SSE visible
29 Oct 4.9 17:43:22 10° SSE 17:47:32 21° E 17:50:19 15° ENE visible
29 Oct 3.8 19:25:20 10° SW 19:31:04 73° WNW 19:32:17 55° N visible
29 Oct 6.2 21:12:14 10° W 21:14:15 16° WNW 21:14:15 16° WNW visible
30 Oct 5.5 02:36:49 27° NE 02:36:49 27° NE 02:41:28 10° E visible
30 Oct 3.6 04:18:50 33° NW 04:21:25 71° WSW 04:27:02 10° SSE visible
30 Oct 5.4 06:02:32 10° WNW 06:04:28 12° W 06:06:23 10° WSW visible
30 Oct 4.9 17:29:38 10° SE 17:33:44 21° E 17:37:49 10° NE visible
30 Oct 3.8 19:11:30 10° SW 19:17:15 75° WNW 19:19:46 35° NNE visible
30 Oct 6.0 20:58:20 10° W 21:01:44 19° NW 21:01:44 19° NW visible
31 Oct 5.9 02:24:54 21° ENE 02:24:54 21° ENE 02:27:35 10° E visible
31 Oct 3.5 04:06:54 65° WNW 04:07:36 73° WSW 04:13:13 10° SSE visible
31 Oct 5.4 05:48:55 11° WNW 05:50:40 12° W 05:52:47 10° WSW visible
31 Oct 5.0 17:15:54 10° SE 17:19:56 20° E 17:23:58 10° NE visible
31 Oct 3.8 18:57:41 10° SSW 19:03:25 77° WNW 19:07:03 24° NNE visible
31 Oct 5.9 20:44:26 10° W 20:48:34 20° NW 20:48:59 20° NNW visible
01 Nov 6.3 02:13:04 13° E 02:13:04 13° E 02:13:42 10° E visible
01 Nov 4.0 03:55:05 53° S 03:55:05 53° S 03:59:24 10° SSE visible
01 Nov 5.4 05:37:06 13° W 05:37:06 13° W 05:39:10 10° WSW visible
01 Nov 5.0 17:02:10 10° SE 17:06:08 20° E 17:10:06 10° NE visible
01 Nov 3.8 18:43:51 10° SSW 18:49:36 79° WNW 18:54:08 17° NNE visible
01 Nov 5.9 20:30:32 10° W 20:34:42 20° NW 20:36:04 19° NNW visible
02 Nov 5.2 03:43:19 25° SSE 03:43:19 25° SSE 03:45:35 10° SSE visible
02 Nov 5.6 05:25:20 10° WSW 05:25:20 10° WSW 05:25:32 10° WSW visible
02 Nov 3.8 18:30:01 10° SSW 18:35:46 81° WNW 18:41:04 13° NNE visible
02 Nov 5.9 20:16:38 10° W 20:20:51 21° NW 20:23:00 17° N visible
